Latest Weather Observations for Canterbury

IDN60801

Issued at 1:35 am EST Saturday 26 July 2014 (issued every 30 minutes, with the page automatically refreshed every 10 minutes)

About weather observations | Map of weather stations | Latest weather observations for NSW | Other Formats
Station Details ID: 066194 Name: CANTERBURY RACECOURSE AWS Lat: -33.91 Lon: 151.11 Height: 3.0 m
Data from the previous 72 hours. | See also: Recent months at Canterbury
Date/Time
EST
Temp
°C
App
Temp
°C
Dew
Point
Rel
Hum
%
Delta-T
°C
Wind Press
QNH
hPa
Press
MSL
hPa
Rain
since 9 am
mm
Dir
 
Spd
km/h
Gust
km/h
Spd
kts
Gust
kts
26/01:30am 12.2 12.3 10.3 88 1.0 NNE 0 0 0 0 - - 1.4
26/01:00am 12.0 12.0 9.7 86 1.2 ESE 0 0 0 0 - - 1.4
26/12:30am 12.5 12.6 10.0 85 1.3 CALM 0 0 0 0 - - 1.4
26/12:00am 12.9 12.9 9.7 81 1.6 ESE 0 0 0 0 - - 1.4
 
Date/Time
EST
Temp
°C
App
Temp
°C
Dew
Point
Rel
Hum
%
Delta-T
°C
Wind Press
QNH
hPa
Press
MSL
hPa
Rain
since 9 am
mm
Dir
 
Spd
km/h
Gust
km/h
Spd
kts
Gust
kts
25/11:30pm 13.3 13.1 9.0 75 2.2 CALM 0 0 0 0 - - 1.4
25/11:00pm 14.9 13.5 9.7 71 2.7 N 7 9 4 5 - - 1.4
25/10:30pm 15.2 13.9 10.0 71 2.7 NNE 7 11 4 6 - - 1.4
25/10:00pm 14.9 13.1 9.5 70 2.8 NNE 9 11 5 6 - - 1.4
25/09:30pm 15.8 15.3 9.5 66 3.3 ENE 2 7 1 4 - - 1.4
25/09:00pm 16.4 14.6 9.3 63 3.7 N 9 11 5 6 - - 1.4
25/08:30pm 17.2 15.4 9.4 60 4.1 N 9 15 5 8 - - 1.4
25/08:00pm 17.9 14.5 9.3 57 4.5 NNW 17 26 9 14 - - 1.4
25/07:30pm 18.2 14.8 9.0 55 4.8 NNW 17 24 9 13 - - 1.4
25/07:00pm 18.2 14.8 9.0 55 4.8 NNW 17 26 9 14 - - 1.4
25/06:30pm 18.1 15.4 8.9 55 4.8 NNW 13 24 7 13 - - 1.4
25/06:00pm 18.1 15.4 8.9 55 4.8 N 13 22 7 12 - - 1.4
25/05:30pm 18.6 14.7 9.4 55 4.8 N 20 30 11 16 - - 1.4
25/05:00pm 18.8 15.1 9.3 54 5.0 N 19 28 10 15 - - 1.4
25/04:30pm 19.0 14.7 9.2 53 5.1 N 22 33 12 18 - - 1.4
25/04:00pm 19.2 15.5 10.2 56 4.8 N 20 35 11 19 - - 1.4
25/03:30pm 19.4 15.9 10.1 55 5.0 N 19 30 10 16 - - 1.4
25/03:00pm 19.2 16.5 10.2 56 4.8 N 15 26 8 14 - - 1.4
25/02:30pm 19.1 15.6 10.1 56 4.8 N 19 28 10 15 - - 1.4
25/02:00pm 18.8 16.4 10.1 57 4.6 N 13 28 7 15 - - 1.4
25/01:30pm 18.4 15.0 10.5 60 4.2 N 19 24 10 13 - - 1.4
25/01:00pm 17.8 15.8 11.4 66 3.5 N 13 22 7 12 - - 1.4
25/12:30pm 16.4 15.8 11.8 74 2.5 NW 6 13 3 7 - - 1.4
25/12:00pm 14.3 13.7 11.6 84 1.4 W 6 7 3 4 - - 1.4
25/11:30am 14.0 12.3 11.3 84 1.4 N 11 17 6 9 - - 1.4
25/11:00am 11.9 9.6 10.5 91 0.7 N 13 19 7 10 - - 1.4
25/10:30am 10.7 9.9 9.8 94 0.5 N 4 7 2 4 - - 1.2
25/10:00am 9.9 7.5 8.8 93 0.5 WNW 11 24 6 13 - - 1.0
25/09:37am 9.5 8.0 8.6 94 0.4 NE 6 9 3 5 - - 0.8
25/09:30am 9.4 7.9 8.3 93 0.5 NW 6 9 3 5 - - 0.8
25/09:08am 9.4 7.0 8.5 94 0.4 WNW 11 15 6 8 - - 0.2
25/09:00am 9.3 7.6 8.4 94 0.4 NW 7 13 4 7 - - 0.0
25/08:30am 9.2 7.5 8.4 95 0.4 NW 7 11 4 6 - - 0.0
25/08:00am 8.9 6.9 8.8 99 0.0 N 9 13 5 7 - - 0.0
25/07:30am 6.2 4.5 6.1 99 0.0 W 4 7 2 4 - - 0.0
25/07:00am 5.9 4.9 5.8 99 0.0 CALM 0 0 0 0 - - 0.0
25/06:39am 5.6 4.6 5.5 99 0.0 CALM 0 0 0 0 - - 0.0
25/06:30am 5.4 4.3 5.3 99 0.0 CALM 0 0 0 0 - - 0.0
25/06:00am 5.8 4.8 5.7 99 0.0 NNW 0 0 0 0 - - 0.0
25/05:54am 5.6 4.6 5.5 99 0.0 CALM 0 0 0 0 - - 0.0
25/05:50am 5.5 4.5 5.4 99 0.0 CALM 0 0 0 0 - - 0.0
25/05:30am 5.4 4.3 5.1 98 0.1 CALM 0 0 0 0 - - 0.0
25/05:28am 5.6 4.6 5.5 99 0.0 CALM 0 0 0 0 - - 0.0
25/05:26am 5.7 4.7 5.6 99 0.0 CALM 0 0 0 0 - - 0.0
25/05:00am 5.9 4.9 5.6 98 0.1 CALM 0 0 0 0 - - 0.0
25/04:56am 5.7 4.7 5.4 98 0.1 CALM 0 0 0 0 - - 0.0
25/04:52am 5.8 4.8 5.5 98 0.1 CALM 0 0 0 0 - - 0.0
25/04:30am 5.7 4.6 5.3 97 0.2 CALM 0 0 0 0 - - 0.0
25/04:23am 5.6 4.5 5.3 98 0.1 CALM 0 0 0 0 - - 0.0
25/04:20am 6.0 5.0 5.7 98 0.1 CALM 0 0 0 0 - - 0.0
25/04:00am 6.1 5.1 5.8 98 0.1 CALM 0 0 0 0 - - 0.0
25/03:37am 6.2 5.2 5.8 97 0.2 CALM 0 0 0 0 - - 0.0
25/03:31am 6.3 5.4 5.9 97 0.2 CALM 0 0 0 0 - - 0.0
25/03:30am 6.3 5.4 5.9 97 0.2 CALM 0 0 0 0 - - 0.0
25/03:00am 6.6 5.7 5.9 95 0.3 CALM 0 0 0 0 - - 0.0
25/02:49am 7.0 6.2 6.4 96 0.3 CALM 0 0 0 0 - - 0.0
25/02:30am 7.4 6.7 6.8 96 0.3 CALM 0 0 0 0 - - 0.0
25/02:00am 7.5 6.8 6.8 95 0.3 CALM 0 0 0 0 - - 0.0
25/01:30am 8.2 7.6 7.3 94 0.4 CALM 0 0 0 0 - - 0.0
25/01:00am 8.5 7.9 7.3 92 0.6 CALM 0 0 0 0 - - 0.0
25/12:30am 9.4 7.9 8.6 95 0.4 WNW 6 7 3 4 - - 0.0
25/12:00am 8.5 8.0 7.7 95 0.4 CALM 0 0 0 0 - - 0.0
 
Date/Time
EST
Temp
°C
App
Temp
°C
Dew
Point
Rel
Hum
%
Delta-T
°C
Wind Press
QNH
hPa
Press
MSL
hPa
Rain
since 9 am
mm
Dir
 
Spd
km/h
Gust
km/h
Spd
kts
Gust
kts
24/11:30pm 8.6 8.1 7.7 94 0.4 CALM 0 0 0 0 - - 0.0
24/11:00pm 9.0 8.5 7.8 92 0.6 CALM 0 0 0 0 - - 0.0
24/10:30pm 9.5 9.0 7.9 90 0.8 CALM 0 0 0 0 - - 0.0
24/10:00pm 9.2 8.6 7.3 88 0.9 CALM 0 0 0 0 - - 0.0
24/09:30pm 10.0 9.3 8.4 90 0.8 N 2 7 1 4 - - 0.0
24/09:00pm 10.4 10.0 8.2 86 1.1 CALM 0 0 0 0 - - 0.0
24/08:30pm 10.7 10.4 8.5 86 1.1 CALM 0 0 0 0 - - 0.0
24/08:00pm 11.2 10.9 8.6 84 1.3 CALM 0 6 0 3 - - 0.0
24/07:30pm 11.7 10.5 8.0 78 1.8 N 4 9 2 5 - - 0.0
24/07:00pm 12.4 11.9 7.9 74 2.2 CALM 0 4 0 2 - - 0.0
24/06:30pm 13.5 13.0 7.9 69 2.8 CALM 0 6 0 3 - - 0.0
24/06:00pm 14.5 13.7 8.0 65 3.2 N 2 6 1 3 - - 0.0
24/05:30pm 15.2 14.3 7.7 61 3.7 NNE 2 7 1 4 - - 0.0
24/05:00pm 16.2 14.5 7.4 56 4.4 N 6 9 3 5 - - 0.0
24/04:30pm 16.7 14.6 8.1 57 4.4 N 9 11 5 6 - - 0.0
24/04:00pm 17.2 14.7 8.1 55 4.6 N 11 15 6 8 - - 0.0
24/03:30pm 17.6 14.1 7.1 50 5.2 N 15 24 8 13 - - 0.0
24/03:00pm 18.6 16.1 8.0 50 5.4 N 11 19 6 10 - - 0.0
24/02:30pm 17.2 15.3 8.9 58 4.3 NNE 9 13 5 7 - - 0.0
24/02:00pm 16.5 14.6 9.0 61 3.9 NNE 9 13 5 7 - - 0.0
24/01:30pm 16.0 14.3 8.5 61 3.8 N 7 13 4 7 - - 0.0
24/01:00pm 15.2 13.5 8.4 64 3.4 WNW 7 11 4 6 - - 0.0
24/12:30pm 14.8 13.4 9.0 68 3.0 NW 6 9 3 5 - - 0.0
24/12:00pm 14.7 13.2 8.4 66 3.2 W 6 7 3 4 - - 0.0
24/11:30am 15.0 13.5 8.5 65 3.3 WNW 6 9 3 5 - - 0.0
24/11:00am 13.8 12.4 9.0 73 2.4 W 6 11 3 6 - - 0.0
24/10:30am 13.0 11.1 9.1 77 2.0 NW 9 13 5 7 - - 0.0
24/10:00am 12.4 10.4 8.7 78 1.8 WNW 9 11 5 6 - - 0.0
24/09:30am 12.3 10.8 9.1 81 1.6 NNW 7 11 4 6 - - 0.0
24/09:00am 10.6 10.8 10.4 99 0.1 CALM 0 0 0 0 - - 0.0
24/08:30am 9.4 9.3 9.3 99 0.0 CALM 0 0 0 0 - - 0.0
24/08:00am 7.2 6.5 7.1 99 0.0 CALM 0 0 0 0 - - 0.0
24/07:30am 6.0 5.1 5.9 99 0.0 CALM 0 0 0 0 - - 0.0
24/07:20am 5.5 4.5 5.4 99 0.0 CALM 0 0 0 0 - - 0.0
24/07:00am 4.7 3.5 4.6 99 0.0 CALM 0 0 0 0 - - 0.0
24/06:32am 4.9 3.7 4.8 99 0.0 CALM 0 0 0 0 - - 0.0
24/06:30am 5.0 3.9 4.9 99 0.0 CALM 0 0 0 0 - - 0.0
24/06:27am 4.9 3.7 4.8 99 0.0 CALM 0 0 0 0 - - 0.0
24/06:00am 4.8 3.6 4.7 99 0.0 CALM 0 0 0 0 - - 0.0
24/05:30am 4.8 3.6 4.7 99 0.0 CALM 0 0 0 0 - - 0.0
24/05:17am 5.1 4.0 5.0 99 0.0 CALM 0 0 0 0 - - 0.0
24/05:00am 5.3 4.2 5.2 99 0.0 CALM 0 0 0 0 - - 0.0
24/04:54am 4.9 3.7 4.8 99 0.0 CALM 0 0 0 0 - - 0.0
24/04:30am 4.8 3.6 4.7 99 0.0 CALM 0 0 0 0 - - 0.0
24/04:12am 4.9 3.7 4.8 99 0.0 CALM 0 0 0 0 - - 0.0
24/04:00am 5.1 4.0 5.0 99 0.0 CALM 0 0 0 0 - - 0.0
24/03:30am 5.0 3.9 4.9 99 0.0 CALM 0 0 0 0 - - 0.0
24/03:00am 5.8 4.8 5.7 99 0.0 CALM 0 0 0 0 - - 0.0
24/02:30am 5.5 4.5 5.4 99 0.0 CALM 0 0 0 0 - - 0.0
24/02:26am 5.7 4.7 5.6 99 0.0 CALM 0 0 0 0 - - 0.0
24/02:00am 5.2 4.1 4.9 98 0.1 CALM 0 0 0 0 - - 0.0
24/01:30am 6.0 5.0 5.7 98 0.1 CALM 0 0 0 0 - - 0.0
24/01:14am 6.3 5.4 6.0 98 0.1 CALM 0 0 0 0 - - 0.0
24/01:00am 7.1 6.4 7.0 99 0.0 CALM 0 0 0 0 - - 0.0
24/12:53am 6.4 5.6 6.3 99 0.0 CALM 0 0 0 0 - - 0.0
24/12:30am 6.4 5.5 6.1 98 0.1 CALM 0 0 0 0 - - 0.0
24/12:00am 6.2 5.2 5.8 97 0.2 CALM 0 0 0 0 - - 0.0
 
Date/Time
EST
Temp
°C
App
Temp
°C
Dew
Point
Rel
Hum
%
Delta-T
°C
Wind Press
QNH
hPa
Press
MSL
hPa
Rain
since 9 am
mm
Dir
 
Spd
km/h
Gust
km/h
Spd
kts
Gust
kts
23/11:30pm 6.8 6.0 6.4 97 0.2 CALM 0 0 0 0 - - 0.0
23/11:24pm 6.6 5.8 6.3 98 0.1 CALM 0 0 0 0 - - 0.0
23/11:16pm 7.0 6.2 6.7 98 0.1 CALM 0 0 0 0 - - 0.0
23/11:00pm 6.9 6.1 6.5 97 0.2 CALM 0 0 0 0 - - 0.0
23/10:32pm 7.3 6.5 6.7 96 0.3 CALM 0 2 0 1 - - 0.0
23/10:30pm 7.4 6.6 6.7 95 0.3 CALM 0 0 0 0 - - 0.0
23/10:00pm 8.2 7.3 7.6 96 0.3 E 2 6 1 3 - - 0.0
23/09:30pm 8.1 7.5 7.2 94 0.4 CALM 0 0 0 0 - - 0.0
23/09:00pm 8.3 7.6 6.9 91 0.6 CALM 0 0 0 0 - - 0.0
23/08:30pm 9.0 8.5 7.8 92 0.6 CALM 0 0 0 0 - - 0.0
23/08:00pm 9.7 9.2 8.0 89 0.8 CALM 0 0 0 0 - - 0.0
23/07:30pm 10.5 10.1 8.4 87 1.0 CALM 0 0 0 0 - - 0.0
23/07:00pm 11.6 10.0 7.9 78 1.8 E 6 9 3 5 - - 0.0
23/06:30pm 12.7 11.1 8.6 76 2.0 E 7 9 4 5 - - 0.0
23/06:00pm 13.5 11.9 8.8 73 2.4 E 7 9 4 5 - - 0.0
23/05:30pm 13.6 11.5 8.2 70 2.7 E 9 13 5 7 - - 0.0
23/05:00pm 14.0 11.5 8.0 67 3.0 E 11 13 6 7 - - 0.0
23/04:30pm 14.9 12.0 8.2 64 3.4 E 13 15 7 8 - - 0.0
23/04:00pm 15.5 12.6 8.3 62 3.6 ESE 13 17 7 9 - - 0.0
23/03:30pm 16.4 13.2 8.4 59 4.1 ESE 15 20 8 11 - - 0.0
23/03:00pm 16.5 13.1 9.0 61 3.9 SE 17 20 9 11 - - 0.0
23/02:30pm 16.6 13.7 8.1 57 4.3 E 13 20 7 11 - - 0.0
23/02:00pm 17.8 15.4 7.2 50 5.3 WSW 9 13 5 7 - - 0.0
23/01:30pm 18.0 15.7 7.4 50 5.3 NW 9 11 5 6 - - 0.0
23/01:00pm 17.7 15.4 7.4 51 5.2 NW 9 13 5 7 - - 0.0
23/12:30pm 17.1 15.8 7.5 53 4.8 SSW 4 9 2 5 - - 0.0
23/12:00pm 17.4 15.9 8.3 55 4.7 ENE 6 11 3 6 - - 0.0
23/11:30am 17.0 16.3 8.4 57 4.4 NE 2 9 1 5 - - 0.0
23/11:00am 16.1 14.6 9.1 63 3.6 WNW 7 9 4 5 - - 0.0
23/10:30am 14.7 13.2 9.1 69 2.9 WNW 7 9 4 5 - - 0.0
23/10:00am 13.5 12.1 8.8 73 2.4 NW 6 9 3 5 - - 0.0
23/09:30am 12.0 10.0 8.8 81 1.6 NNW 9 11 5 6 - - 0.0
23/09:00am 10.4 9.0 8.8 90 0.8 NW 6 11 3 6 - - 0.0
23/08:30am 8.8 7.4 8.7 99 0.0 NW 6 9 3 5 - - 0.0
23/08:03am 8.1 6.5 8.0 99 0.0 NNW 6 7 3 4 - - 0.0
23/08:00am 7.8 6.1 7.7 99 0.0 NNW 6 7 3 4 - - 0.0
23/07:30am 4.9 3.7 4.8 99 0.0 CALM 0 0 0 0 - - 0.0
23/07:00am 4.7 3.5 4.6 99 0.0 CALM 0 0 0 0 - - 0.0
23/06:30am 4.9 3.7 4.8 99 0.0 CALM 0 0 0 0 - - 0.0
23/06:00am 5.1 4.0 5.0 99 0.0 CALM 0 0 0 0 - - 0.0
23/05:30am 5.5 4.5 5.4 99 0.0 CALM 0 0 0 0 - - 0.0
23/05:00am 5.4 4.3 5.3 99 0.0 CALM 0 0 0 0 - - 0.0
23/04:30am 5.8 4.8 5.7 99 0.0 CALM 0 0 0 0 - - 0.0
23/04:00am 5.7 4.6 5.3 97 0.2 CALM 0 0 0 0 - - 0.0
23/03:30am 6.6 5.7 6.2 97 0.2 CALM 0 0 0 0 - - 0.0
23/03:16am 6.9 6.1 6.6 98 0.1 CALM 0 0 0 0 - - 0.0
23/03:00am 6.9 6.1 6.6 98 0.1 CALM 0 0 0 0 - - 0.0
23/02:56am 7.0 6.2 6.7 98 0.1 CALM 0 0 0 0 - - 0.0
23/02:30am 7.5 6.8 7.1 97 0.2 CALM 0 0 0 0 - - 0.0
23/02:29am 7.5 6.8 7.1 97 0.2 CALM 0 0 0 0 - - 0.0
23/02:00am 8.2 7.7 7.9 98 0.1 CALM 0 0 0 0 - - 0.0

Other Formats:

Comma delimited format used in spreadsheet applications
http://www.bom.gov.au/fwo/IDN60801/IDN60801.94766.axf

JavaScript Object Notation format (JSON) in row-major order
http://www.bom.gov.au/fwo/IDN60801/IDN60801.94766.json